UAE32A OMDB-FAOR

Flight info

Callsign UAE32A
Flight time 7h 49m
Altitude 34000
Route ANVIX R401 GIDIS G783 UKRAG/N0489F330 L710 KUKDI/N0490F340 B400 VEDET UL437 MOGDU/N0489F360 UL437 ELAVA DCT BONAP UM310 VBR/N0482F380 UM307 EPSEK UZ33 NESAG UZ7 OKPIT OKPIT1C
Aircraft B77W/H-SDE1E2E3FGHIJ2J3J4J5M1RWXY/LB1D1

Departure

Time 2026-04-23 09:45
Airport Dubai International Airport (OMDB)

Arrival

Time 2026-04-23 17:35
Airport O.R. Tambo International Airport (FAOR)
Time Latitude Longitude Altitude Speed Heading
2026-04-23 08:54 25.24154 55.37328 30 ft 0 kts 31°
2026-04-23 09:31 25.24143 55.37321 32 ft 4 kts 31°
2026-04-23 09:31 25.24120 55.37306 33 ft 4 kts 31°
2026-04-23 09:32 25.24101 55.37293 31 ft 4 kts 34°
2026-04-23 09:32 25.24083 55.37273 31 ft 4 kts 74°
2026-04-23 09:32 25.24084 55.37246 31 ft 4 kts 116°
2026-04-23 09:32 25.24097 55.37222 31 ft 4 kts 122°
2026-04-23 09:33 25.24111 55.37197 31 ft 2 kts 122°
2026-04-23 09:33 25.24112 55.37195 31 ft 0 kts 122°
2026-04-23 09:36 25.24106 55.37206 31 ft 4 kts 122°
2026-04-23 09:36 25.24084 55.37244 31 ft 8 kts 122°
2026-04-23 09:36 25.24045 55.37314 30 ft 13 kts 122°
2026-04-23 09:36 25.23999 55.37397 31 ft 13 kts 122°
2026-04-23 09:37 25.23967 55.37487 27 ft 13 kts 96°
2026-04-23 09:37 25.23992 55.37579 31 ft 13 kts 53°
2026-04-23 09:37 25.24061 55.37638 30 ft 13 kts 32°
2026-04-23 09:37 25.24136 55.37689 29 ft 13 kts 31°
2026-04-23 09:38 25.24212 55.37741 29 ft 13 kts 31°
2026-04-23 09:38 25.24287 55.37791 29 ft 12 kts 31°
2026-04-23 09:38 25.24315 55.37811 26 ft 4 kts 32°
2026-04-23 09:38 25.24338 55.37827 26 ft 4 kts 34°
2026-04-23 09:39 25.24341 55.37830 26 ft 0 kts 34°
2026-04-23 09:42 25.24354 55.37839 27 ft 10 kts 34°
2026-04-23 09:42 25.24427 55.37893 29 ft 13 kts 34°
2026-04-23 09:43 25.24502 55.37950 30 ft 13 kts 34°
2026-04-23 09:43 25.24575 55.38006 28 ft 11 kts 34°
2026-04-23 09:43 25.24639 55.38052 28 ft 11 kts 33°
2026-04-23 09:43 25.24704 55.38096 30 ft 11 kts 32°
2026-04-23 09:44 25.24748 55.38116 31 ft 6 kts 352°
2026-04-23 09:44 25.24778 55.38080 30 ft 7 kts 295°
2026-04-23 09:44 25.24813 55.38013 30 ft 20 kts 301°
2026-04-23 09:44 25.24962 55.37745 30 ft 72 kts 301°
2026-04-23 09:45 25.25336 55.37069 30 ft 133 kts 301°
2026-04-23 09:45 25.25914 55.36031 30 ft 181 kts 302°
2026-04-23 09:45 25.26582 55.34777 403 ft 184 kts 303°
2026-04-23 09:45 25.27243 55.33583 866 ft 191 kts 306°
2026-04-23 09:46 25.27952 55.32323 1385 ft 191 kts 304°
2026-04-23 09:46 25.28656 55.31036 1825 ft 198 kts 305°
2026-04-23 09:46 25.29308 55.29698 2261 ft 205 kts 286°
2026-04-23 09:46 25.29251 55.28150 2647 ft 205 kts 245°
2026-04-23 09:47 25.28573 55.26774 3069 ft 203 kts 239°
2026-04-23 09:47 25.27905 55.25392 3436 ft 211 kts 244°
2026-04-23 09:47 25.27261 55.23959 3912 ft 206 kts 244°
2026-04-23 09:47 25.26637 55.22531 4368 ft 206 kts 244°
2026-04-23 09:48 25.26013 55.21092 4765 ft 212 kts 244°
2026-04-23 09:48 25.25359 55.19573 4970 ft 228 kts 244°
2026-04-23 09:48 25.24625 55.18009 5394 ft 230 kts 232°
2026-04-23 09:48 25.23344 55.16962 5857 ft 233 kts 201°
2026-04-23 09:49 25.21719 55.16698 6224 ft 246 kts 180°
2026-04-23 09:49 25.19996 55.16845 6639 ft 252 kts 169°
2026-04-23 09:49 25.18413 55.17728 7000 ft 265 kts 138°
2026-04-23 09:49 25.17300 55.19462 6999 ft 287 kts 119°
2026-04-23 09:50 25.16384 55.21453 7076 ft 292 kts 120°
2026-04-23 09:50 25.15441 55.23442 7709 ft 292 kts 120°
2026-04-23 09:50 25.14497 55.25415 8336 ft 294 kts 120°
2026-04-23 09:50 25.13530 55.27437 8945 ft 298 kts 120°
2026-04-23 09:51 25.12567 55.29445 9523 ft 301 kts 120°
2026-04-23 09:51 25.11579 55.31503 10105 ft 304 kts 121°
2026-04-23 09:51 25.10582 55.33588 10717 ft 306 kts 119°
2026-04-23 09:51 25.09689 55.35703 11366 ft 309 kts 117°
2026-04-23 09:52 25.08810 55.37884 12088 ft 310 kts 117°
2026-04-23 09:52 25.07921 55.40072 12821 ft 312 kts 118°
2026-04-23 09:52 25.07036 55.42248 13523 ft 317 kts 117°
2026-04-23 09:52 25.06135 55.44563 13810 ft 338 kts 117°
2026-04-23 09:53 25.05201 55.47010 13969 ft 360 kts 116°
2026-04-23 09:53 25.04192 55.49650 14129 ft 382 kts 116°
2026-04-23 09:53 25.03125 55.52426 14392 ft 399 kts 116°
2026-04-23 09:53 25.02029 55.55265 14705 ft 410 kts 116°
2026-04-23 09:54 25.00740 55.58080 14757 ft 409 kts 123°
2026-04-23 09:54 24.99264 55.60717 14799 ft 406 kts 126°
2026-04-23 09:54 24.97746 55.63337 14809 ft 405 kts 125°
2026-04-23 09:54 24.96250 55.66012 15228 ft 411 kts 124°
2026-04-23 09:55 24.94791 55.68692 15988 ft 412 kts 124°
2026-04-23 09:55 24.93269 55.71394 16724 ft 413 kts 127°
2026-04-23 09:55 24.91583 55.73983 17400 ft 417 kts 130°
2026-04-23 09:55 24.89819 55.76544 18041 ft 422 kts 130°
2026-04-23 09:56 24.88053 55.79116 18577 ft 427 kts 130°
2026-04-23 09:56 24.86264 55.81779 19092 ft 433 kts 129°
2026-04-23 09:56 24.84469 55.84483 19584 ft 440 kts 129°
2026-04-23 09:56 24.82647 55.87217 20108 ft 444 kts 129°
2026-04-23 09:57 24.81427 55.89027 20475 ft 446 kts 130°
2026-04-23 09:57 24.78480 55.92124 20966 ft 444 kts 154°
2026-04-23 09:57 24.76615 55.93056 21299 ft 442 kts 165°
2026-04-23 09:57 24.73618 55.93761 21925 ft 437 kts 179°
2026-04-23 09:58 24.70569 55.93722 22490 ft 436 kts 186°
2026-04-23 09:58 24.67557 55.93541 22919 ft 441 kts 186°
2026-04-23 09:58 24.64449 55.93404 23370 ft 443 kts 187°
2026-04-23 09:58 24.61440 55.92865 23651 ft 444 kts 200°
2026-04-23 09:59 24.58575 55.91555 24022 ft 444 kts 211°
2026-04-23 09:59 24.56012 55.89666 24448 ft 440 kts 223°
2026-04-23 09:59 24.53725 55.87412 24792 ft 444 kts 224°
2026-04-23 09:59 24.51449 55.85152 25158 ft 448 kts 224°
2026-04-23 10:00 24.49104 55.82850 25578 ft 451 kts 224°
2026-04-23 10:00 24.46737 55.80555 26003 ft 453 kts 224°
2026-04-23 10:00 24.44380 55.78286 26401 ft 456 kts 224°
2026-04-23 10:00 24.41980 55.75984 26838 ft 458 kts 224°
2026-04-23 10:01 24.39556 55.73662 27223 ft 461 kts 224°
2026-04-23 10:01 24.37156 55.71363 27576 ft 465 kts 225°
2026-04-23 10:01 24.34709 55.69007 27927 ft 468 kts 225°
2026-04-23 10:01 24.32256 55.66636 28283 ft 470 kts 225°
2026-04-23 10:02 24.29770 55.64251 28643 ft 473 kts 223°
2026-04-23 10:02 24.27114 55.62153 28929 ft 481 kts 216°
2026-04-23 10:02 24.24113 55.60395 29253 ft 488 kts 209°
2026-04-23 10:02 24.20980 55.59007 29665 ft 493 kts 202°
2026-04-23 10:03 24.17654 55.58000 30101 ft 494 kts 199°
2026-04-23 10:03 24.14312 55.57070 30517 ft 493 kts 199°
2026-04-23 10:03 24.11018 55.56146 30914 ft 492 kts 200°
2026-04-23 10:03 24.07700 55.55188 31294 ft 490 kts 200°
2026-04-23 10:04 24.04400 55.54214 31685 ft 489 kts 201°
2026-04-23 10:04 24.01148 55.53248 32055 ft 488 kts 201°
2026-04-23 10:04 23.97855 55.52269 32427 ft 487 kts 201°
2026-04-23 10:04 23.94573 55.51291 32822 ft 486 kts 201°
2026-04-23 10:05 23.91312 55.50319 33207 ft 484 kts 201°
2026-04-23 10:05 23.88098 55.49363 33548 ft 484 kts 201°
2026-04-23 10:05 23.84828 55.48390 33763 ft 486 kts 202°
2026-04-23 10:06 23.78279 55.46437 33802 ft 487 kts 202°
2026-04-23 10:06 23.71803 55.44511 33804 ft 481 kts 202°
2026-04-23 10:07 23.65303 55.42574 33808 ft 482 kts 202°
2026-04-23 10:07 23.58846 55.40652 33814 ft 483 kts 202°
2026-04-23 10:08 23.52201 55.39273 33805 ft 497 kts 187°
2026-04-23 10:08 23.45239 55.40104 33809 ft 513 kts 170°
2026-04-23 10:09 23.34994 55.43407 33810 ft 515 kts 168°
2026-04-23 10:09 23.28095 55.45631 33806 ft 515 kts 169°
2026-04-23 10:10 23.21235 55.47803 33813 ft 515 kts 169°
2026-04-23 10:10 23.14339 55.49976 33811 ft 514 kts 169°
2026-04-23 10:11 23.07491 55.52136 33811 ft 514 kts 169°
2026-04-23 10:11 23.00596 55.54296 33806 ft 514 kts 169°
2026-04-23 10:12 22.93743 55.56385 33801 ft 514 kts 169°
2026-04-23 10:12 22.86839 55.58482 33817 ft 514 kts 169°
2026-04-23 10:13 22.79981 55.60572 33817 ft 514 kts 169°
2026-04-23 10:13 22.73062 55.62683 33820 ft 515 kts 169°
2026-04-23 10:14 22.66186 55.64778 33808 ft 515 kts 170°
2026-04-23 10:14 22.59306 55.66873 33815 ft 515 kts 169°
2026-04-23 10:15 22.52434 55.68981 33821 ft 515 kts 169°
2026-04-23 10:15 22.45523 55.71100 33821 ft 514 kts 169°
2026-04-23 10:16 22.38646 55.73205 33811 ft 514 kts 170°
2026-04-23 10:16 22.31775 55.75305 33814 ft 514 kts 170°
2026-04-23 10:17 22.24840 55.77212 33814 ft 509 kts 176°
2026-04-23 10:17 22.17874 55.77995 33811 ft 503 kts 182°
2026-04-23 10:18 22.10906 55.78625 33826 ft 504 kts 181°
2026-04-23 10:18 22.03937 55.79304 33824 ft 505 kts 181°
2026-04-23 10:19 21.96929 55.80012 33821 ft 506 kts 181°
2026-04-23 10:19 21.89920 55.80720 33815 ft 506 kts 181°
2026-04-23 10:20 21.82880 55.81428 33822 ft 506 kts 181°
2026-04-23 10:20 21.75894 55.82129 33821 ft 506 kts 181°
2026-04-23 10:21 21.68868 55.82832 33825 ft 505 kts 181°
2026-04-23 10:21 21.61876 55.83518 33818 ft 505 kts 181°
2026-04-23 10:22 21.54897 55.84197 33823 ft 505 kts 181°
2026-04-23 10:22 21.47881 55.84882 33821 ft 505 kts 181°
2026-04-23 10:23 21.40911 55.85562 33820 ft 505 kts 181°
2026-04-23 10:23 21.33932 55.86244 33819 ft 505 kts 181°
2026-04-23 10:24 21.26906 55.86928 33819 ft 505 kts 181°
2026-04-23 10:24 21.19927 55.87601 33819 ft 505 kts 181°
2026-04-23 10:25 21.12952 55.88270 33814 ft 505 kts 181°
2026-04-23 10:25 21.05908 55.88946 33809 ft 506 kts 180°
2026-04-23 10:26 20.98931 55.89616 33812 ft 507 kts 180°
2026-04-23 10:26 20.91871 55.90294 33812 ft 508 kts 180°
2026-04-23 10:27 20.84848 55.90968 33802 ft 508 kts 180°
2026-04-23 10:27 20.77794 55.91660 33803 ft 509 kts 180°
2026-04-23 10:28 20.70753 55.92354 33807 ft 509 kts 180°
2026-04-23 10:28 20.63668 55.93051 33802 ft 509 kts 180°
2026-04-23 10:29 20.56649 55.93739 33791 ft 509 kts 180°
2026-04-23 10:29 20.49602 55.94429 33818 ft 509 kts 180°
2026-04-23 10:30 20.42553 55.95119 33802 ft 509 kts 180°
2026-04-23 10:30 20.35501 55.95809 33801 ft 509 kts 180°
2026-04-23 10:31 20.28453 55.96494 33793 ft 509 kts 180°
2026-04-23 10:31 20.21382 55.97165 33812 ft 510 kts 180°
2026-04-23 10:32 20.14316 55.97836 33808 ft 511 kts 180°
2026-04-23 10:32 20.07203 55.98466 33791 ft 510 kts 183°
2026-04-23 10:33 20.00149 55.98655 33800 ft 509 kts 185°
2026-04-23 10:33 19.93067 55.98784 33805 ft 509 kts 184°
2026-04-23 10:34 19.85949 55.98941 33801 ft 510 kts 184°
2026-04-23 10:34 19.78908 55.99112 33802 ft 510 kts 184°
2026-04-23 10:35 19.71822 55.99287 33801 ft 509 kts 184°
2026-04-23 10:35 19.64702 55.99459 33809 ft 509 kts 184°
2026-04-23 10:36 19.57638 55.99630 33807 ft 508 kts 184°
2026-04-23 10:36 19.50734 55.98934 33809 ft 493 kts 201°
2026-04-23 10:37 19.44515 55.96273 33806 ft 477 kts 217°
2026-04-23 10:37 19.38785 55.92685 33812 ft 477 kts 217°
2026-04-23 10:38 19.33061 55.89152 33811 ft 478 kts 216°
2026-04-23 10:38 19.27258 55.85626 33813 ft 479 kts 216°
2026-04-23 10:39 19.21484 55.82132 33811 ft 480 kts 216°
2026-04-23 10:39 19.15667 55.78612 33811 ft 480 kts 216°
2026-04-23 10:40 19.09854 55.75094 33810 ft 479 kts 216°
2026-04-23 10:40 19.04117 55.71627 33814 ft 478 kts 216°
2026-04-23 10:41 18.98316 55.68137 33813 ft 477 kts 216°
2026-04-23 10:41 18.92561 55.64679 33816 ft 477 kts 216°
2026-04-23 10:42 18.86782 55.61207 33815 ft 476 kts 216°
2026-04-23 10:42 18.81045 55.57761 33811 ft 476 kts 215°
2026-04-23 10:43 18.75301 55.54313 33824 ft 477 kts 215°
2026-04-23 10:43 18.70487 55.51427 33817 ft 478 kts 214°
2026-04-23 10:44 18.64714 55.47967 33826 ft 479 kts 214°
2026-04-23 10:44 18.58877 55.44472 33824 ft 480 kts 214°
2026-04-23 10:45 18.53061 55.40993 33829 ft 481 kts 214°
2026-04-23 10:45 18.47269 55.37531 33827 ft 482 kts 214°
2026-04-23 10:46 18.41416 55.34034 33825 ft 481 kts 214°
2026-04-23 10:46 18.35595 55.30560 33827 ft 481 kts 214°
2026-04-23 10:47 18.29793 55.27099 33828 ft 480 kts 214°
2026-04-23 10:47 18.23992 55.23638 33817 ft 480 kts 214°
2026-04-23 10:48 18.18169 55.20165 33840 ft 480 kts 214°
2026-04-23 10:48 18.12282 55.16848 33821 ft 486 kts 208°
2026-04-23 10:49 18.06014 55.14052 33822 ft 489 kts 207°
2026-04-23 10:49 17.99758 55.11298 33826 ft 490 kts 207°
2026-04-23 10:50 17.93498 55.08511 33832 ft 491 kts 208°
2026-04-23 10:50 17.87180 55.05679 33821 ft 491 kts 208°
2026-04-23 10:51 17.80913 55.02868 33827 ft 491 kts 208°
2026-04-23 10:51 17.74625 55.00053 33830 ft 491 kts 208°
2026-04-23 10:52 17.68359 54.97250 33830 ft 491 kts 208°
2026-04-23 10:52 17.62071 54.94440 33849 ft 490 kts 208°
2026-04-23 10:53 17.55805 54.91640 33863 ft 490 kts 208°
2026-04-23 10:53 17.49552 54.88850 33869 ft 490 kts 208°
2026-04-23 10:54 17.43265 54.86046 33886 ft 490 kts 208°
2026-04-23 10:54 17.37014 54.83260 33886 ft 491 kts 208°
2026-04-23 10:55 17.30743 54.80467 33893 ft 491 kts 208°
2026-04-23 10:55 17.24610 54.77326 33886 ft 484 kts 218°
2026-04-23 10:56 17.18994 54.73504 33893 ft 483 kts 218°
2026-04-23 10:56 17.13372 54.69685 33902 ft 483 kts 218°
2026-04-23 10:57 17.07685 54.65873 33893 ft 483 kts 218°
2026-04-23 10:57 17.02060 54.62118 33893 ft 483 kts 218°
2026-04-23 10:58 16.96381 54.58327 33899 ft 482 kts 218°
2026-04-23 10:58 16.90734 54.54558 33887 ft 482 kts 218°
2026-04-23 10:59 16.85092 54.50795 33886 ft 482 kts 218°
2026-04-23 10:59 16.79419 54.47011 33886 ft 482 kts 218°
2026-04-23 11:00 16.73762 54.43239 33875 ft 482 kts 218°
2026-04-23 11:00 16.68137 54.39490 33877 ft 482 kts 218°
2026-04-23 11:01 16.62456 54.35707 33872 ft 482 kts 218°
2026-04-23 11:01 16.56809 54.31950 33861 ft 482 kts 218°
2026-04-23 11:02 16.51176 54.28204 33868 ft 482 kts 218°
2026-04-23 11:02 16.45514 54.24442 33866 ft 482 kts 218°
2026-04-23 11:03 16.39836 54.20671 33870 ft 483 kts 218°
2026-04-23 11:03 16.34187 54.16922 33868 ft 483 kts 218°
2026-04-23 11:04 16.28521 54.13165 33868 ft 483 kts 218°
2026-04-23 11:04 16.22860 54.09414 33865 ft 483 kts 218°
2026-04-23 11:05 16.17207 54.05670 33869 ft 483 kts 218°
2026-04-23 11:05 16.11538 54.01919 33869 ft 483 kts 218°
2026-04-23 11:06 16.03036 53.96297 33868 ft 483 kts 218°
2026-04-23 11:07 15.97359 53.92546 33866 ft 483 kts 218°
2026-04-23 11:07 15.91674 53.88792 33857 ft 483 kts 218°
2026-04-23 11:08 15.86025 53.85060 33869 ft 483 kts 218°
2026-04-23 11:08 15.80367 53.81283 33860 ft 482 kts 218°
2026-04-23 11:09 15.74739 53.77518 33862 ft 482 kts 218°
2026-04-23 11:09 15.69103 53.73754 33869 ft 482 kts 218°
2026-04-23 11:10 15.63443 53.69980 33866 ft 483 kts 218°
2026-04-23 11:10 15.57806 53.66224 33864 ft 483 kts 218°
2026-04-23 11:11 15.52125 53.62441 33866 ft 483 kts 218°
2026-04-23 11:11 15.46487 53.58688 33867 ft 483 kts 218°
2026-04-23 11:12 15.40830 53.54952 33864 ft 483 kts 217°
2026-04-23 11:12 15.35091 53.51277 33861 ft 484 kts 217°
2026-04-23 11:13 15.29369 53.47633 33862 ft 483 kts 217°
2026-04-23 11:13 15.23649 53.43978 33864 ft 483 kts 217°
2026-04-23 11:14 15.17946 53.40326 33864 ft 483 kts 217°
2026-04-23 11:14 15.12192 53.36643 33864 ft 483 kts 217°
2026-04-23 11:15 15.06481 53.32990 33861 ft 483 kts 217°
2026-04-23 11:15 15.00775 53.29343 33862 ft 483 kts 217°
2026-04-23 11:16 14.95067 53.25697 33856 ft 483 kts 217°
2026-04-23 11:16 14.89323 53.22031 33860 ft 483 kts 217°
2026-04-23 11:17 14.83624 53.18396 33860 ft 482 kts 217°
2026-04-23 11:17 14.77925 53.14762 33859 ft 482 kts 217°
2026-04-23 11:18 14.72243 53.11141 33860 ft 482 kts 217°
2026-04-23 11:18 14.66516 53.07494 33860 ft 481 kts 217°
2026-04-23 11:19 14.60846 53.03867 33857 ft 481 kts 217°
2026-04-23 11:19 14.55167 53.00213 33853 ft 481 kts 217°
2026-04-23 11:20 14.49484 52.96559 33855 ft 481 kts 217°
2026-04-23 11:20 14.43794 52.92906 33852 ft 481 kts 217°
2026-04-23 11:21 14.38123 52.89268 33849 ft 481 kts 217°
2026-04-23 11:21 14.32422 52.85614 33853 ft 481 kts 217°
2026-04-23 11:22 14.26774 52.81995 33851 ft 481 kts 217°
2026-04-23 11:22 14.21065 52.78339 33853 ft 481 kts 217°
2026-04-23 11:23 14.15379 52.74701 33849 ft 481 kts 217°
2026-04-23 11:23 14.09712 52.71077 33853 ft 481 kts 217°
2026-04-23 11:24 14.03993 52.67422 33851 ft 481 kts 217°
2026-04-23 11:24 13.98320 52.63798 33852 ft 481 kts 217°
2026-04-23 11:25 13.92629 52.60165 33846 ft 481 kts 217°
2026-04-23 11:25 13.86951 52.56542 33852 ft 482 kts 217°
2026-04-23 11:26 13.81241 52.52901 33853 ft 482 kts 217°
2026-04-23 11:26 13.75542 52.49269 33849 ft 482 kts 217°
2026-04-23 11:27 13.69848 52.45643 33846 ft 482 kts 217°
2026-04-23 11:27 13.64159 52.42021 33846 ft 482 kts 216°
2026-04-23 11:28 13.58470 52.38402 33850 ft 481 kts 216°
2026-04-23 11:28 13.52759 52.34770 33846 ft 481 kts 216°
2026-04-23 11:29 13.47082 52.31162 33849 ft 481 kts 216°
2026-04-23 11:29 13.41392 52.27547 33848 ft 481 kts 216°
2026-04-23 11:30 13.35677 52.23924 33849 ft 481 kts 216°
2026-04-23 11:30 13.29984 52.20327 33843 ft 481 kts 216°
2026-04-23 11:31 13.24292 52.16734 33849 ft 482 kts 216°
2026-04-23 11:31 13.18590 52.13134 33845 ft 483 kts 216°
2026-04-23 11:32 13.13810 52.10117 33845 ft 483 kts 216°
2026-04-23 11:32 13.08057 52.06487 33845 ft 484 kts 216°
2026-04-23 11:33 13.02342 52.02884 33833 ft 484 kts 216°
2026-04-23 11:33 12.96604 51.99268 33844 ft 485 kts 216°
2026-04-23 11:34 12.90830 51.95631 33852 ft 486 kts 216°
2026-04-23 11:34 12.85085 51.92015 33846 ft 487 kts 216°
2026-04-23 11:35 12.79295 51.88373 33831 ft 487 kts 216°
2026-04-23 11:35 12.73522 51.84743 33829 ft 487 kts 216°
2026-04-23 11:36 12.67770 51.81129 33835 ft 487 kts 216°
2026-04-23 11:36 12.61974 51.77488 33843 ft 486 kts 216°
2026-04-23 11:37 12.56237 51.73886 33840 ft 486 kts 216°
2026-04-23 11:37 12.50454 51.70258 33836 ft 485 kts 216°
2026-04-23 11:38 12.44740 51.66675 33823 ft 485 kts 217°
2026-04-23 11:38 12.38989 51.63070 33824 ft 485 kts 216°
2026-04-23 11:39 12.33234 51.59464 33836 ft 484 kts 217°
2026-04-23 11:39 12.27489 51.55867 33825 ft 485 kts 216°
2026-04-23 11:40 12.21750 51.52275 33822 ft 485 kts 216°
2026-04-23 11:40 12.15979 51.48665 33825 ft 485 kts 216°
2026-04-23 11:41 12.10246 51.45080 33824 ft 485 kts 216°
2026-04-23 11:41 12.04465 51.41467 33826 ft 485 kts 216°
2026-04-23 11:42 11.98734 51.37887 33832 ft 485 kts 216°
2026-04-23 11:42 11.92983 51.34294 33823 ft 485 kts 216°
2026-04-23 11:43 11.87198 51.30681 33830 ft 485 kts 216°
2026-04-23 11:43 11.81433 51.27083 33831 ft 485 kts 216°
2026-04-23 11:44 11.75705 51.23508 33822 ft 485 kts 216°
2026-04-23 11:44 11.69938 51.19911 33831 ft 485 kts 216°
2026-04-23 11:45 11.64186 51.16324 33820 ft 485 kts 216°
2026-04-23 11:45 11.58435 51.12741 33835 ft 485 kts 217°
2026-04-23 11:46 11.52654 51.09140 33833 ft 485 kts 216°
2026-04-23 11:46 11.46913 51.05565 33843 ft 485 kts 216°
2026-04-23 11:47 11.41165 51.01988 33830 ft 484 kts 217°
2026-04-23 11:47 11.35419 50.98416 33844 ft 484 kts 216°
2026-04-23 11:48 11.29634 50.94808 33850 ft 485 kts 216°
2026-04-23 11:48 11.23892 50.91231 33849 ft 487 kts 216°
2026-04-23 11:49 11.18116 50.87635 33849 ft 487 kts 216°
2026-04-23 11:49 11.12307 50.84022 33847 ft 488 kts 216°
2026-04-23 11:50 11.06520 50.80423 33843 ft 488 kts 216°
2026-04-23 11:50 11.00739 50.76830 33843 ft 488 kts 216°
2026-04-23 11:51 10.94916 50.73211 33829 ft 488 kts 216°
2026-04-23 11:51 10.89152 50.69633 33838 ft 487 kts 216°
2026-04-23 11:52 10.83357 50.66035 33828 ft 486 kts 216°
2026-04-23 11:52 10.77586 50.62455 33834 ft 486 kts 216°
2026-04-23 11:53 10.71817 50.58876 33833 ft 485 kts 216°
2026-04-23 11:53 10.66062 50.55308 33832 ft 485 kts 216°
2026-04-23 11:54 10.60307 50.51742 33833 ft 485 kts 216°
2026-04-23 11:54 10.54556 50.48180 33826 ft 485 kts 216°
2026-04-23 11:55 10.48812 50.44624 33828 ft 485 kts 216°
2026-04-23 11:55 10.43049 50.41058 33816 ft 485 kts 216°
2026-04-23 11:56 10.37268 50.37482 33820 ft 486 kts 216°
2026-04-23 11:56 10.31507 50.33920 33823 ft 487 kts 216°
2026-04-23 11:57 10.25715 50.30341 33821 ft 487 kts 216°
2026-04-23 11:57 10.19902 50.26750 33817 ft 488 kts 216°
2026-04-23 11:58 10.14116 50.23178 33812 ft 488 kts 216°
2026-04-23 11:58 10.08293 50.19583 33820 ft 488 kts 216°
2026-04-23 11:59 10.02508 50.16015 33820 ft 489 kts 216°
2026-04-23 11:59 9.96706 50.12437 33822 ft 489 kts 216°
2026-04-23 12:00 9.90900 50.08858 33823 ft 488 kts 216°
2026-04-23 12:00 9.85072 50.05268 33828 ft 488 kts 216°
2026-04-23 12:01 9.79292 50.01707 33829 ft 488 kts 216°
2026-04-23 12:01 9.73492 49.98136 33827 ft 488 kts 216°
2026-04-23 12:02 9.67692 49.94567 33827 ft 488 kts 216°
2026-04-23 12:02 9.61895 49.91000 33827 ft 488 kts 216°
2026-04-23 12:03 9.56077 49.87423 33827 ft 488 kts 216°
2026-04-23 12:03 9.50290 49.83866 33825 ft 488 kts 216°
2026-04-23 12:04 9.44493 49.80303 33820 ft 488 kts 216°
2026-04-23 12:04 9.38661 49.76722 33818 ft 488 kts 216°
2026-04-23 12:05 9.32870 49.73166 33815 ft 488 kts 216°
2026-04-23 12:05 9.27054 49.69595 33821 ft 488 kts 216°
2026-04-23 12:06 9.21218 49.66016 33810 ft 489 kts 216°
2026-04-23 12:06 9.12482 49.60672 33818 ft 489 kts 216°
2026-04-23 12:07 9.06676 49.57122 33811 ft 489 kts 216°
2026-04-23 12:07 9.00865 49.53569 33812 ft 489 kts 216°
2026-04-23 12:08 8.95029 49.50002 33814 ft 489 kts 216°
2026-04-23 12:08 8.89207 49.46445 33812 ft 490 kts 216°
2026-04-23 12:09 8.83358 49.42872 33812 ft 489 kts 216°
2026-04-23 12:09 8.77511 49.39302 33808 ft 489 kts 216°
2026-04-23 12:10 8.71703 49.35756 33807 ft 489 kts 216°
2026-04-23 12:10 8.65895 49.32212 33802 ft 489 kts 216°
2026-04-23 12:11 8.60044 49.28644 33794 ft 489 kts 216°
2026-04-23 12:11 8.54244 49.25109 33796 ft 489 kts 216°
2026-04-23 12:12 8.48383 49.21538 33799 ft 489 kts 216°
2026-04-23 12:12 8.42566 49.17993 33787 ft 490 kts 216°
2026-04-23 12:13 8.36740 49.14445 33796 ft 490 kts 216°
2026-04-23 12:13 8.30907 49.10893 33796 ft 490 kts 216°
2026-04-23 12:14 8.25060 49.07334 33797 ft 490 kts 216°
2026-04-23 12:14 8.19223 49.03783 33798 ft 490 kts 216°
2026-04-23 12:15 8.13398 49.00240 33797 ft 490 kts 216°
2026-04-23 12:15 8.07564 48.96693 33802 ft 490 kts 216°
2026-04-23 12:16 8.01708 48.93133 33800 ft 491 kts 216°
2026-04-23 12:16 7.95875 48.89588 33808 ft 491 kts 215°
2026-04-23 12:17 7.90001 48.86020 33806 ft 491 kts 215°
2026-04-23 12:17 7.84159 48.82473 33803 ft 491 kts 215°
2026-04-23 12:18 7.78309 48.78922 33806 ft 491 kts 216°
2026-04-23 12:18 7.73434 48.75963 33803 ft 491 kts 215°
2026-04-23 12:19 7.67582 48.72413 33795 ft 491 kts 215°
2026-04-23 12:19 7.61706 48.68849 33798 ft 491 kts 215°
2026-04-23 12:20 7.55869 48.65311 33796 ft 491 kts 215°
2026-04-23 12:20 7.50024 48.61768 33790 ft 491 kts 215°
2026-04-23 12:21 7.44183 48.58228 33794 ft 491 kts 215°
2026-04-23 12:21 7.38330 48.54681 33780 ft 491 kts 215°
2026-04-23 12:22 7.32491 48.51140 33780 ft 490 kts 215°
2026-04-23 12:22 7.26658 48.47547 33784 ft 490 kts 216°
2026-04-23 12:23 7.20867 48.43963 33783 ft 490 kts 216°
2026-04-23 12:23 7.15066 48.40378 33778 ft 490 kts 216°
2026-04-23 12:24 7.09240 48.36785 33773 ft 490 kts 215°
2026-04-23 12:24 7.03443 48.33212 33773 ft 490 kts 215°
2026-04-23 12:25 6.97617 48.29623 33768 ft 490 kts 215°
2026-04-23 12:25 6.91799 48.26039 33768 ft 490 kts 215°
2026-04-23 12:26 6.85994 48.22465 33767 ft 490 kts 215°
2026-04-23 12:26 6.80159 48.18872 33768 ft 490 kts 214°
2026-04-23 12:27 6.74352 48.15298 33770 ft 490 kts 214°
2026-04-23 12:27 6.68546 48.11726 33771 ft 491 kts 214°
2026-04-23 12:28 6.62700 48.08131 33767 ft 491 kts 214°
2026-04-23 12:28 6.56892 48.04559 33768 ft 491 kts 214°
2026-04-23 12:29 6.51083 48.00987 33767 ft 491 kts 214°
2026-04-23 12:29 6.45236 47.97394 33768 ft 490 kts 214°
2026-04-23 12:30 6.39445 47.93836 33767 ft 490 kts 214°
2026-04-23 12:30 6.33597 47.90244 33768 ft 490 kts 214°
2026-04-23 12:31 6.27802 47.86685 33765 ft 490 kts 214°
2026-04-23 12:31 6.21971 47.83105 33764 ft 490 kts 214°
2026-04-23 12:32 6.16167 47.79543 33763 ft 489 kts 215°
2026-04-23 12:32 6.10353 47.75975 33764 ft 489 kts 214°
2026-04-23 12:33 6.04546 47.72412 33764 ft 489 kts 215°
2026-04-23 12:33 5.98759 47.68863 33759 ft 489 kts 215°
2026-04-23 12:34 5.92960 47.65307 33761 ft 489 kts 215°
2026-04-23 12:34 5.87148 47.61744 33758 ft 489 kts 215°
2026-04-23 12:35 5.81343 47.58186 33754 ft 489 kts 214°
2026-04-23 12:35 5.75527 47.54622 33756 ft 489 kts 214°
2026-04-23 12:36 5.69742 47.51078 33756 ft 489 kts 214°
2026-04-23 12:36 5.63907 47.47508 33757 ft 489 kts 214°
2026-04-23 12:37 5.58090 47.43992 33750 ft 490 kts 214°
2026-04-23 12:37 5.52249 47.40474 33756 ft 490 kts 214°
2026-04-23 12:38 5.46426 47.36963 33750 ft 490 kts 214°
2026-04-23 12:38 5.40568 47.33427 33749 ft 490 kts 214°
2026-04-23 12:39 5.34736 47.29906 33753 ft 490 kts 214°
2026-04-23 12:39 5.28915 47.26392 33753 ft 490 kts 214°
2026-04-23 12:40 5.23073 47.22867 33751 ft 490 kts 214°
2026-04-23 12:40 5.17213 47.19332 33750 ft 491 kts 214°
2026-04-23 12:41 5.11384 47.15816 33750 ft 491 kts 214°
2026-04-23 12:41 5.05542 47.12293 33753 ft 491 kts 214°
2026-04-23 12:42 4.99666 47.08751 33750 ft 491 kts 213°
2026-04-23 12:42 4.93808 47.05220 33750 ft 491 kts 213°
2026-04-23 12:43 4.87966 47.01699 33753 ft 491 kts 213°
2026-04-23 12:43 4.82116 46.98175 33757 ft 491 kts 213°
2026-04-23 12:44 4.76272 46.94655 33758 ft 491 kts 213°
2026-04-23 12:44 4.70398 46.91117 33752 ft 491 kts 213°
2026-04-23 12:45 4.64554 46.87598 33761 ft 491 kts 213°
2026-04-23 12:45 4.58694 46.84070 33762 ft 490 kts 213°
2026-04-23 12:46 4.52865 46.80562 33771 ft 490 kts 213°
2026-04-23 12:46 4.46999 46.77032 33770 ft 490 kts 213°
2026-04-23 12:47 4.41177 46.73529 33777 ft 490 kts 213°
2026-04-23 12:47 4.35342 46.70019 33774 ft 490 kts 213°
2026-04-23 12:48 4.29485 46.66496 33775 ft 490 kts 213°
2026-04-23 12:48 4.23609 46.62963 33779 ft 490 kts 213°
2026-04-23 12:49 4.17788 46.59463 33786 ft 490 kts 213°
2026-04-23 12:49 4.11955 46.55957 33797 ft 490 kts 213°
2026-04-23 12:50 4.06099 46.52437 33787 ft 490 kts 213°
2026-04-23 12:50 4.00247 46.48921 33786 ft 489 kts 213°
2026-04-23 12:51 3.94423 46.45422 33808 ft 489 kts 213°
2026-04-23 12:51 3.88601 46.41924 33788 ft 489 kts 213°
2026-04-23 12:52 3.82739 46.38403 33793 ft 489 kts 213°
2026-04-23 12:52 3.76926 46.34912 33797 ft 489 kts 213°
2026-04-23 12:53 3.71111 46.31421 33819 ft 490 kts 213°
2026-04-23 12:53 3.65257 46.27906 33815 ft 490 kts 213°
2026-04-23 12:54 3.59429 46.24408 33801 ft 490 kts 213°
2026-04-23 12:54 3.53557 46.20884 33801 ft 490 kts 213°
2026-04-23 12:55 3.48680 46.17957 33808 ft 490 kts 213°
2026-04-23 12:55 3.43609 46.14915 33802 ft 490 kts 213°
2026-04-23 12:56 3.37767 46.11410 33804 ft 491 kts 213°
2026-04-23 12:56 3.31879 46.07878 33803 ft 492 kts 213°
2026-04-23 12:57 3.26030 46.04369 33807 ft 493 kts 213°
2026-04-23 12:57 3.20173 46.00829 33805 ft 493 kts 213°
2026-04-23 12:58 3.14312 45.97258 33805 ft 492 kts 213°
2026-04-23 12:58 3.08482 45.93716 33798 ft 491 kts 213°
2026-04-23 12:59 3.02610 45.90180 33793 ft 490 kts 213°
2026-04-23 12:59 2.96771 45.86698 33785 ft 490 kts 213°
2026-04-23 13:00 2.90919 45.83238 33771 ft 490 kts 212°
2026-04-23 13:00 2.85013 45.79762 33764 ft 490 kts 212°
2026-04-23 13:01 2.79145 45.76318 33751 ft 490 kts 212°
2026-04-23 13:01 2.73266 45.72888 33754 ft 490 kts 212°
2026-04-23 13:02 2.67363 45.69479 33741 ft 490 kts 212°
2026-04-23 13:02 2.61433 45.66095 33717 ft 490 kts 212°
2026-04-23 13:03 2.55493 45.62742 33706 ft 491 kts 211°
2026-04-23 13:03 2.49557 45.59433 33696 ft 491 kts 211°
2026-04-23 13:04 2.43571 45.56141 33701 ft 491 kts 211°
2026-04-23 13:04 2.37524 45.52897 33687 ft 491 kts 210°
2026-04-23 13:05 2.31479 45.49757 33670 ft 491 kts 209°
2026-04-23 13:05 2.25409 45.46692 33656 ft 491 kts 208°
2026-04-23 13:06 2.16222 45.42173 33649 ft 491 kts 207°
2026-04-23 13:07 2.10037 45.39209 33648 ft 491 kts 207°
2026-04-23 13:07 2.04879 45.36779 33643 ft 491 kts 207°
2026-04-23 13:08 1.98683 45.33932 33639 ft 492 kts 206°
2026-04-23 13:08 1.92426 45.31135 33632 ft 492 kts 206°
2026-04-23 13:09 1.86163 45.28412 33646 ft 493 kts 205°
2026-04-23 13:09 1.79850 45.25737 33650 ft 493 kts 204°
2026-04-23 13:10 1.73534 45.23098 33649 ft 492 kts 204°
2026-04-23 13:10 1.67196 45.20484 33644 ft 491 kts 204°
2026-04-23 13:11 1.60860 45.17910 33641 ft 490 kts 204°
2026-04-23 13:11 1.54566 45.15389 33637 ft 489 kts 203°
2026-04-23 13:12 1.48235 45.12890 33627 ft 489 kts 203°
2026-04-23 13:12 1.41877 45.10424 33620 ft 489 kts 202°
2026-04-23 13:13 1.35548 45.08022 33615 ft 489 kts 202°
2026-04-23 13:13 1.29212 45.05528 33633 ft 482 kts 212°
2026-04-23 13:13 1.26650 45.03469 33746 ft 476 kts 231°
2026-04-23 13:14 1.24840 45.00692 33808 ft 473 kts 242°
2026-04-23 13:14 1.20818 44.95483 33838 ft 484 kts 226°
2026-04-23 13:15 1.15793 44.90961 33819 ft 487 kts 221°
2026-04-23 13:15 1.10617 44.86539 33823 ft 487 kts 222°
2026-04-23 13:16 1.05551 44.82069 33820 ft 486 kts 223°
2026-04-23 13:16 1.00542 44.77549 33839 ft 485 kts 223°
2026-04-23 13:17 0.95557 44.73028 33828 ft 484 kts 223°
2026-04-23 13:17 0.90571 44.68512 33820 ft 484 kts 223°
2026-04-23 13:18 0.85567 44.63985 33821 ft 484 kts 223°
2026-04-23 13:18 0.80579 44.59475 33837 ft 483 kts 223°
2026-04-23 13:19 0.75616 44.54988 33847 ft 483 kts 223°
2026-04-23 13:19 0.70617 44.50467 33827 ft 483 kts 223°
2026-04-23 13:20 0.65640 44.45968 33819 ft 483 kts 223°
2026-04-23 13:20 0.60671 44.41474 33823 ft 483 kts 223°
2026-04-23 13:21 0.55665 44.36948 33831 ft 483 kts 224°
2026-04-23 13:21 0.50692 44.32452 33844 ft 483 kts 223°
2026-04-23 13:22 0.45735 44.27970 33828 ft 483 kts 223°
2026-04-23 13:22 0.40735 44.23448 33826 ft 484 kts 223°
2026-04-23 13:23 0.35765 44.18954 33829 ft 484 kts 223°
2026-04-23 13:23 0.30590 44.14606 33831 ft 484 kts 216°
2026-04-23 13:24 0.25020 44.10856 33833 ft 485 kts 215°
2026-04-23 13:24 0.19417 44.07126 33834 ft 485 kts 214°
2026-04-23 13:25 0.13827 44.03372 33827 ft 485 kts 215°
2026-04-23 13:25 0.08217 43.99579 33829 ft 485 kts 216°
2026-04-23 13:26 0.02628 43.95795 33849 ft 485 kts 215°
2026-04-23 13:26 -0.02923 43.92036 33849 ft 485 kts 215°
2026-04-23 13:27 -0.08527 43.88244 33834 ft 486 kts 216°
2026-04-23 13:27 -0.14120 43.84459 33830 ft 487 kts 215°
2026-04-23 13:28 -0.19753 43.80647 33834 ft 488 kts 214°
2026-04-23 13:28 -0.25364 43.76850 33851 ft 487 kts 216°
2026-04-23 13:29 -0.30980 43.73051 33856 ft 486 kts 215°
2026-04-23 13:29 -0.36570 43.69267 33837 ft 485 kts 215°
2026-04-23 13:30 -0.42143 43.65496 33832 ft 484 kts 215°
2026-04-23 13:30 -0.47709 43.61730 33856 ft 484 kts 216°
2026-04-23 13:31 -0.53273 43.57964 33855 ft 484 kts 216°
2026-04-23 13:31 -0.58873 43.54174 33854 ft 484 kts 215°
2026-04-23 13:32 -0.64439 43.50407 33838 ft 485 kts 215°
2026-04-23 13:32 -0.70012 43.46635 33842 ft 485 kts 215°
2026-04-23 13:33 -0.75621 43.42839 33844 ft 485 kts 216°
2026-04-23 13:33 -0.81178 43.39078 33845 ft 485 kts 216°
2026-04-23 13:34 -0.86784 43.35283 33842 ft 485 kts 215°
2026-04-23 13:34 -0.92358 43.31509 33843 ft 486 kts 215°
2026-04-23 13:35 -0.97983 43.27702 33845 ft 486 kts 216°
2026-04-23 13:35 -1.03541 43.23940 33865 ft 486 kts 216°
2026-04-23 13:36 -1.09147 43.20145 33866 ft 486 kts 216°
2026-04-23 13:36 -1.14742 43.16355 33846 ft 488 kts 214°
2026-04-23 13:37 -1.20408 43.12520 33844 ft 491 kts 215°
2026-04-23 13:37 -1.26095 43.08671 33845 ft 494 kts 215°
2026-04-23 13:38 -1.31780 43.04821 33847 ft 496 kts 215°
2026-04-23 13:38 -1.37481 43.00960 33866 ft 495 kts 215°
2026-04-23 13:39 -1.43111 42.97148 33839 ft 487 kts 214°
2026-04-23 13:39 -1.48732 42.93342 33860 ft 487 kts 214°
2026-04-23 13:40 -1.54340 42.89543 33859 ft 488 kts 214°
2026-04-23 13:40 -1.59994 42.85713 33871 ft 489 kts 214°
2026-04-23 13:41 -1.65618 42.81904 33849 ft 490 kts 214°
2026-04-23 13:41 -1.71245 42.78091 33849 ft 490 kts 214°
2026-04-23 13:42 -1.76915 42.74250 33850 ft 491 kts 214°
2026-04-23 13:42 -1.82560 42.70425 33871 ft 492 kts 214°
2026-04-23 13:43 -1.88229 42.66583 33871 ft 492 kts 214°
2026-04-23 13:43 -1.93898 42.62741 34116 ft 495 kts 214°
2026-04-23 13:43 -1.96746 42.60811 34493 ft 492 kts 214°
2026-04-23 13:44 -1.99594 42.58881 34752 ft 493 kts 214°
2026-04-23 13:44 -2.02397 42.56969 35081 ft 491 kts 214°
2026-04-23 13:44 -2.05211 42.55023 35484 ft 488 kts 215°
2026-04-23 13:44 -2.07975 42.53100 35847 ft 485 kts 215°
2026-04-23 13:45 -2.09812 42.51821 35865 ft 484 kts 215°
2026-04-23 13:45 -2.16272 42.47333 35863 ft 486 kts 215°
2026-04-23 13:46 -2.21852 42.43466 35865 ft 486 kts 215°
2026-04-23 13:46 -2.27318 42.39518 35857 ft 487 kts 216°
2026-04-23 13:47 -2.32746 42.35476 35867 ft 489 kts 217°
2026-04-23 13:47 -2.38211 42.31413 35867 ft 490 kts 216°
2026-04-23 13:48 -2.43718 42.27343 35868 ft 492 kts 216°
2026-04-23 13:48 -2.49215 42.23290 35865 ft 493 kts 216°
2026-04-23 13:49 -2.54760 42.19202 35868 ft 492 kts 217°
2026-04-23 13:49 -2.60256 42.15149 35865 ft 491 kts 216°
2026-04-23 13:50 -2.65716 42.11120 35865 ft 489 kts 216°
2026-04-23 13:50 -2.71194 42.07078 35867 ft 487 kts 216°
2026-04-23 13:51 -2.76616 42.03077 35870 ft 486 kts 216°
2026-04-23 13:51 -2.82071 41.99052 35871 ft 485 kts 216°
2026-04-23 13:52 -2.87503 41.95043 35872 ft 486 kts 217°
2026-04-23 13:52 -2.92946 41.91025 35877 ft 489 kts 217°
2026-04-23 13:53 -2.98422 41.86982 35875 ft 491 kts 217°
2026-04-23 13:53 -3.03878 41.82953 35873 ft 493 kts 217°
2026-04-23 13:54 -3.08479 41.79555 35876 ft 494 kts 217°
2026-04-23 13:54 -3.14027 41.75459 35879 ft 494 kts 217°
2026-04-23 13:55 -3.19472 41.71437 35885 ft 490 kts 217°
2026-04-23 13:55 -3.25016 41.67340 35884 ft 497 kts 217°
2026-04-23 13:56 -3.30565 41.63240 35868 ft 494 kts 217°
2026-04-23 13:56 -3.36043 41.59193 35872 ft 488 kts 217°
2026-04-23 13:57 -3.41529 41.55140 35875 ft 487 kts 217°
2026-04-23 13:57 -3.46966 41.51121 35893 ft 487 kts 217°
2026-04-23 13:58 -3.52407 41.47097 35884 ft 488 kts 218°
2026-04-23 13:58 -3.57885 41.43047 35879 ft 489 kts 219°
2026-04-23 13:59 -3.63364 41.38995 35882 ft 490 kts 218°
2026-04-23 13:59 -3.68870 41.34923 35885 ft 492 kts 218°
2026-04-23 14:00 -3.73464 41.31524 35882 ft 492 kts 218°
2026-04-23 14:00 -3.79850 41.26798 35886 ft 490 kts 218°
2026-04-23 14:01 -3.85353 41.22727 35881 ft 489 kts 217°
2026-04-23 14:01 -3.90804 41.18692 35890 ft 488 kts 217°
2026-04-23 14:02 -3.96244 41.14664 35884 ft 487 kts 218°
2026-04-23 14:02 -4.01809 41.10791 35894 ft 487 kts 214°
2026-04-23 14:03 -4.07611 41.07275 35885 ft 487 kts 213°
2026-04-23 14:03 -4.13375 41.03812 35885 ft 486 kts 212°
2026-04-23 14:04 -4.19183 41.00293 35895 ft 486 kts 214°
2026-04-23 14:04 -4.24951 40.96779 35897 ft 486 kts 213°
2026-04-23 14:05 -4.30715 40.93262 35881 ft 487 kts 213°
2026-04-23 14:05 -4.36488 40.89740 35897 ft 486 kts 213°
2026-04-23 14:06 -4.42292 40.86200 35897 ft 486 kts 212°
2026-04-23 14:06 -4.48072 40.82674 35895 ft 486 kts 213°
2026-04-23 14:07 -4.53858 40.79144 35895 ft 486 kts 213°
2026-04-23 14:07 -4.62516 40.73860 35900 ft 486 kts 213°
2026-04-23 14:08 -4.68290 40.70335 35901 ft 486 kts 212°
2026-04-23 14:08 -4.74060 40.66812 35898 ft 486 kts 212°
2026-04-23 14:09 -4.79806 40.63302 35898 ft 485 kts 212°
2026-04-23 14:09 -4.85362 40.59441 35901 ft 483 kts 219°
2026-04-23 14:10 -4.90608 40.55242 35898 ft 483 kts 219°
2026-04-23 14:10 -4.95850 40.51063 35900 ft 483 kts 219°
2026-04-23 14:11 -5.01120 40.46904 35901 ft 483 kts 219°
2026-04-23 14:11 -5.06412 40.42733 35895 ft 482 kts 219°
2026-04-23 14:12 -5.11815 40.38804 35901 ft 482 kts 212°
2026-04-23 14:12 -5.17825 40.35851 35901 ft 483 kts 203°
2026-04-23 14:13 -5.24077 40.33325 35908 ft 483 kts 203°
2026-04-23 14:13 -5.30304 40.30809 35899 ft 483 kts 203°
2026-04-23 14:14 -5.36508 40.28270 35896 ft 482 kts 203°
2026-04-23 14:14 -5.42707 40.25716 35897 ft 482 kts 203°
2026-04-23 14:15 -5.48892 40.23163 35904 ft 481 kts 203°
2026-04-23 14:15 -5.55093 40.20605 35908 ft 480 kts 204°
2026-04-23 14:16 -5.61243 40.18068 35894 ft 479 kts 203°
2026-04-23 14:16 -5.67427 40.15517 35892 ft 478 kts 203°
2026-04-23 14:17 -5.73544 40.12993 35904 ft 478 kts 204°
2026-04-23 14:17 -5.79725 40.10442 35907 ft 478 kts 204°
2026-04-23 14:18 -5.85887 40.07898 35904 ft 479 kts 204°
2026-04-23 14:18 -5.92023 40.05364 35895 ft 479 kts 203°
2026-04-23 14:19 -5.98156 40.02831 35904 ft 478 kts 203°
2026-04-23 14:19 -6.04323 40.00284 35904 ft 477 kts 204°
2026-04-23 14:20 -6.10434 39.97758 35896 ft 476 kts 203°
2026-04-23 14:20 -6.16592 39.95213 35892 ft 476 kts 203°
2026-04-23 14:21 -6.22688 39.92692 35908 ft 476 kts 204°
2026-04-23 14:21 -6.28838 39.90149 35912 ft 476 kts 204°
2026-04-23 14:22 -6.34965 39.87615 35902 ft 477 kts 204°
2026-04-23 14:22 -6.41088 39.85081 35897 ft 477 kts 204°
2026-04-23 14:23 -6.47240 39.82535 35906 ft 477 kts 203°
2026-04-23 14:23 -6.53355 39.80004 35912 ft 476 kts 203°
2026-04-23 14:24 -6.59447 39.77481 35902 ft 475 kts 203°
2026-04-23 14:24 -6.65575 39.74943 35894 ft 474 kts 203°
2026-04-23 14:25 -6.71658 39.72423 35902 ft 474 kts 203°
2026-04-23 14:25 -6.77756 39.69896 35912 ft 474 kts 203°
2026-04-23 14:26 -6.83841 39.67373 35907 ft 474 kts 203°
2026-04-23 14:26 -6.89967 39.64833 35899 ft 474 kts 202°
2026-04-23 14:27 -6.96053 39.62309 35907 ft 474 kts 203°
2026-04-23 14:27 -7.02136 39.59785 35911 ft 474 kts 203°
2026-04-23 14:28 -7.08213 39.57263 35909 ft 474 kts 202°
2026-04-23 14:28 -7.14303 39.54735 35902 ft 474 kts 202°
2026-04-23 14:29 -7.20422 39.52195 35905 ft 474 kts 202°
2026-04-23 14:29 -7.26519 39.49662 35911 ft 475 kts 202°
2026-04-23 14:30 -7.32615 39.47129 35908 ft 475 kts 202°
2026-04-23 14:30 -7.38755 39.44577 35903 ft 475 kts 202°
2026-04-23 14:31 -7.44836 39.42049 35910 ft 475 kts 202°
2026-04-23 14:31 -7.50958 39.39504 35914 ft 474 kts 202°
2026-04-23 14:32 -7.57048 39.36970 35909 ft 474 kts 202°
2026-04-23 14:32 -7.63146 39.34432 35905 ft 474 kts 202°
2026-04-23 14:33 -7.69234 39.31898 35908 ft 475 kts 202°
2026-04-23 14:33 -7.75326 39.29362 35910 ft 475 kts 202°
2026-04-23 14:34 -7.81453 39.26810 35908 ft 475 kts 202°
2026-04-23 14:34 -7.87555 39.24267 35912 ft 475 kts 202°
2026-04-23 14:35 -7.93659 39.21724 35904 ft 476 kts 202°
2026-04-23 14:35 -7.99796 39.19165 35912 ft 476 kts 202°
2026-04-23 14:36 -8.05906 39.16617 35909 ft 476 kts 201°
2026-04-23 14:36 -8.12008 39.14072 35909 ft 476 kts 201°
2026-04-23 14:37 -8.18138 39.11514 35911 ft 476 kts 202°
2026-04-23 14:37 -8.24243 39.08965 35910 ft 475 kts 202°
2026-04-23 14:38 -8.30356 39.06412 35912 ft 476 kts 201°
2026-04-23 14:38 -8.36460 39.03862 35913 ft 476 kts 201°
2026-04-23 14:39 -8.42617 39.01290 35916 ft 476 kts 201°
2026-04-23 14:39 -8.48736 38.98732 35917 ft 477 kts 201°
2026-04-23 14:40 -8.54845 38.96177 35912 ft 477 kts 201°
2026-04-23 14:40 -8.59943 38.94045 35912 ft 477 kts 201°
2026-04-23 14:41 -8.66098 38.91470 35912 ft 477 kts 201°
2026-04-23 14:41 -8.72217 38.88908 35911 ft 477 kts 201°
2026-04-23 14:42 -8.78373 38.86331 35908 ft 477 kts 201°
2026-04-23 14:42 -8.84486 38.83770 35908 ft 477 kts 201°
2026-04-23 14:43 -8.90609 38.81204 35914 ft 476 kts 201°
2026-04-23 14:43 -8.96729 38.78639 35910 ft 476 kts 201°
2026-04-23 14:44 -9.02834 38.76079 35911 ft 476 kts 201°
2026-04-23 14:44 -9.08978 38.73502 35913 ft 476 kts 201°
2026-04-23 14:45 -9.15081 38.70941 35913 ft 476 kts 201°
2026-04-23 14:45 -9.21199 38.68372 35912 ft 476 kts 201°
2026-04-23 14:46 -9.27315 38.65804 35926 ft 476 kts 201°
2026-04-23 14:46 -9.33418 38.63240 35922 ft 476 kts 201°
2026-04-23 14:47 -9.39514 38.60677 35920 ft 476 kts 201°
2026-04-23 14:47 -9.45632 38.58105 35920 ft 476 kts 201°
2026-04-23 14:48 -9.51770 38.55524 35924 ft 476 kts 201°
2026-04-23 14:48 -9.57858 38.52962 35924 ft 475 kts 201°
2026-04-23 14:49 -9.63954 38.50396 35924 ft 475 kts 201°
2026-04-23 14:49 -9.70092 38.47811 35925 ft 475 kts 201°
2026-04-23 14:50 -9.76176 38.45248 35918 ft 475 kts 201°
2026-04-23 14:50 -9.82273 38.42679 35921 ft 475 kts 201°
2026-04-23 14:51 -9.88405 38.40094 35925 ft 476 kts 201°
2026-04-23 14:51 -9.94512 38.37518 35925 ft 476 kts 201°
2026-04-23 14:52 -10.00638 38.34934 35927 ft 476 kts 201°
2026-04-23 14:52 -10.06734 38.32360 35928 ft 476 kts 201°
2026-04-23 14:53 -10.12879 38.29765 35926 ft 476 kts 201°
2026-04-23 14:53 -10.18973 38.27190 35931 ft 476 kts 202°
2026-04-23 14:54 -10.25065 38.24616 35930 ft 476 kts 201°
2026-04-23 14:54 -10.31201 38.22021 35931 ft 475 kts 201°
2026-04-23 14:55 -10.37280 38.19450 35934 ft 475 kts 202°
2026-04-23 14:55 -10.43360 38.16877 35939 ft 475 kts 202°
2026-04-23 14:56 -10.49479 38.14287 35932 ft 474 kts 202°
2026-04-23 14:56 -10.55556 38.11713 35938 ft 474 kts 202°
2026-04-23 14:57 -10.61619 38.09144 35939 ft 473 kts 202°
2026-04-23 14:57 -10.67715 38.06559 35941 ft 473 kts 202°
2026-04-23 14:58 -10.73769 38.03992 35939 ft 473 kts 202°
2026-04-23 14:58 -10.79847 38.01414 35938 ft 473 kts 202°
2026-04-23 14:59 -10.85899 37.98845 35933 ft 473 kts 202°
2026-04-23 14:59 -10.91987 37.96260 35938 ft 473 kts 202°
2026-04-23 15:00 -10.98054 37.93682 35930 ft 472 kts 201°
2026-04-23 15:00 -11.04094 37.91115 35942 ft 472 kts 201°
2026-04-23 15:01 -11.10154 37.88538 35939 ft 472 kts 201°
2026-04-23 15:01 -11.16232 37.85953 35935 ft 472 kts 201°
2026-04-23 15:02 -11.22277 37.83379 35940 ft 472 kts 201°
2026-04-23 15:02 -11.28328 37.80803 35942 ft 472 kts 201°
2026-04-23 15:03 -11.34372 37.78228 35940 ft 472 kts 201°
2026-04-23 15:03 -11.40439 37.75642 35935 ft 472 kts 201°
2026-04-23 15:04 -11.46463 37.73073 35941 ft 471 kts 201°
2026-04-23 15:04 -11.52521 37.70489 35939 ft 471 kts 201°
2026-04-23 15:05 -11.58589 37.67898 35940 ft 471 kts 201°
2026-04-23 15:05 -11.64638 37.65376 35934 ft 470 kts 198°
2026-04-23 15:06 -11.70849 37.63241 35943 ft 470 kts 197°
2026-04-23 15:06 -11.77055 37.61164 35941 ft 470 kts 197°
2026-04-23 15:07 -11.83248 37.59074 35948 ft 470 kts 197°
2026-04-23 15:07 -11.89435 37.56968 35945 ft 470 kts 197°
2026-04-23 15:08 -11.95626 37.54854 35942 ft 470 kts 197°
2026-04-23 15:09 -12.04937 37.51674 35950 ft 470 kts 197°
2026-04-23 15:09 -12.10990 37.49606 35949 ft 470 kts 197°
2026-04-23 15:10 -12.16165 37.47837 35951 ft 470 kts 197°
2026-04-23 15:10 -12.23419 37.45357 35951 ft 470 kts 197°
2026-04-23 15:11 -12.29601 37.43242 35947 ft 470 kts 197°
2026-04-23 15:11 -12.35679 37.41161 37491 ft 471 kts 198°
2026-04-23 15:11 -12.38794 37.40092 35815 ft 464 kts 197°
2026-04-23 15:12 -12.41832 37.39050 35874 ft 458 kts 197°
2026-04-23 15:12 -12.47929 37.36964 35941 ft 469 kts 197°
2026-04-23 15:13 -12.54194 37.34818 35949 ft 476 kts 197°
2026-04-23 15:13 -12.60470 37.32665 35947 ft 476 kts 197°
2026-04-23 15:14 -12.66751 37.30508 35938 ft 475 kts 197°
2026-04-23 15:14 -12.72999 37.28362 35938 ft 473 kts 197°
2026-04-23 15:15 -12.79226 37.26223 35942 ft 472 kts 197°
2026-04-23 15:15 -12.85425 37.24110 35956 ft 470 kts 197°
2026-04-23 15:16 -12.91654 37.22049 35943 ft 469 kts 197°
2026-04-23 15:16 -12.97848 37.20006 35953 ft 469 kts 197°
2026-04-23 15:17 -13.04045 37.17953 35962 ft 469 kts 197°
2026-04-23 15:17 -13.10273 37.15884 35963 ft 469 kts 197°
2026-04-23 15:18 -13.16466 37.13824 35968 ft 470 kts 197°
2026-04-23 15:18 -13.22714 37.11745 35969 ft 470 kts 197°
2026-04-23 15:19 -13.28912 37.09683 35982 ft 471 kts 197°
2026-04-23 15:19 -13.35177 37.07596 35978 ft 471 kts 197°
2026-04-23 15:20 -13.40334 37.05878 35980 ft 471 kts 197°
2026-04-23 15:20 -13.47607 37.03453 35985 ft 471 kts 197°
2026-04-23 15:21 -13.53858 37.01368 35987 ft 471 kts 197°
2026-04-23 15:21 -13.60060 36.99298 35986 ft 470 kts 197°
2026-04-23 15:22 -13.66299 36.97214 35992 ft 470 kts 197°
2026-04-23 15:22 -13.72492 36.95145 35994 ft 470 kts 197°
2026-04-23 15:23 -13.78733 36.93059 35993 ft 470 kts 197°
2026-04-23 15:23 -13.84901 36.90995 35990 ft 470 kts 197°
2026-04-23 15:24 -13.91129 36.88910 35987 ft 470 kts 197°
2026-04-23 15:24 -13.97337 36.86830 35991 ft 470 kts 197°
2026-04-23 15:25 -14.03577 36.84742 35989 ft 470 kts 197°
2026-04-23 15:25 -14.08774 36.83027 35997 ft 470 kts 197°
2026-04-23 15:26 -14.16038 36.80643 35996 ft 470 kts 197°
2026-04-23 15:26 -14.22264 36.78596 35998 ft 470 kts 197°
2026-04-23 15:27 -14.28473 36.76549 36000 ft 470 kts 197°
2026-04-23 15:27 -14.34725 36.74487 36004 ft 470 kts 197°
2026-04-23 15:28 -14.40942 36.72434 36009 ft 470 kts 197°
2026-04-23 15:28 -14.47157 36.70381 36011 ft 470 kts 197°
2026-04-23 15:29 -14.53386 36.68322 36020 ft 470 kts 197°
2026-04-23 15:29 -14.59616 36.66262 36019 ft 470 kts 197°
2026-04-23 15:30 -14.64813 36.64543 36026 ft 470 kts 197°
2026-04-23 15:30 -14.71064 36.62473 36032 ft 470 kts 197°
2026-04-23 15:31 -14.77289 36.60411 36037 ft 470 kts 197°
2026-04-23 15:31 -14.83490 36.58355 36035 ft 470 kts 197°
2026-04-23 15:32 -14.89733 36.56285 36051 ft 469 kts 197°
2026-04-23 15:32 -14.95936 36.54227 36047 ft 470 kts 197°
2026-04-23 15:33 -15.02145 36.52165 36058 ft 469 kts 197°
2026-04-23 15:33 -15.08398 36.50087 36059 ft 469 kts 197°
2026-04-23 15:34 -15.14603 36.48024 36057 ft 470 kts 197°
2026-04-23 15:34 -15.20801 36.45962 36056 ft 470 kts 197°
2026-04-23 15:35 -15.27031 36.43888 36074 ft 471 kts 198°
2026-04-23 15:35 -15.33286 36.41805 36076 ft 471 kts 197°
2026-04-23 15:36 -15.39524 36.39726 36085 ft 471 kts 197°
2026-04-23 15:36 -15.45753 36.37648 36086 ft 472 kts 197°
2026-04-23 15:37 -15.52014 36.35559 36086 ft 472 kts 198°
2026-04-23 15:37 -15.58274 36.33468 36091 ft 471 kts 198°
2026-04-23 15:38 -15.64493 36.31390 36092 ft 471 kts 198°
2026-04-23 15:38 -15.70749 36.29298 36093 ft 471 kts 198°
2026-04-23 15:39 -15.76969 36.27217 36094 ft 470 kts 198°
2026-04-23 15:39 -15.83192 36.25133 36102 ft 470 kts 198°
2026-04-23 15:40 -15.89391 36.23056 36099 ft 470 kts 198°
2026-04-23 15:40 -15.95642 36.20960 36101 ft 470 kts 198°
2026-04-23 15:41 -16.01851 36.18867 36090 ft 471 kts 198°
2026-04-23 15:41 -16.08051 36.16744 36094 ft 471 kts 198°
2026-04-23 15:42 -16.14297 36.14598 36091 ft 471 kts 198°
2026-04-23 15:42 -16.20512 36.12464 36093 ft 471 kts 198°
2026-04-23 15:43 -16.26746 36.10326 36088 ft 471 kts 199°
2026-04-23 15:43 -16.32961 36.08192 36085 ft 471 kts 199°
2026-04-23 15:44 -16.39213 36.06045 36084 ft 471 kts 199°
2026-04-23 15:44 -16.45435 36.03906 36089 ft 471 kts 199°
2026-04-23 15:45 -16.51641 36.01772 36082 ft 471 kts 199°
2026-04-23 15:45 -16.57869 35.99628 36081 ft 471 kts 199°
2026-04-23 15:46 -16.64093 35.97484 36080 ft 471 kts 199°
2026-04-23 15:46 -16.70312 35.95341 36077 ft 472 kts 199°
2026-04-23 15:47 -16.76566 35.93184 36077 ft 472 kts 199°
2026-04-23 15:47 -16.82801 35.91032 36071 ft 472 kts 199°
2026-04-23 15:48 -16.89033 35.88879 36070 ft 472 kts 199°
2026-04-23 15:48 -16.95253 35.86730 36068 ft 473 kts 199°
2026-04-23 15:49 -17.01497 35.84570 36073 ft 473 kts 199°
2026-04-23 15:49 -17.07757 35.82403 36068 ft 473 kts 199°
2026-04-23 15:50 -17.13984 35.80247 36074 ft 473 kts 199°
2026-04-23 15:50 -17.20231 35.78081 36066 ft 473 kts 199°
2026-04-23 15:51 -17.26462 35.75920 36070 ft 473 kts 199°
2026-04-23 15:51 -17.32682 35.73762 36066 ft 473 kts 200°
2026-04-23 15:52 -17.38942 35.71586 36065 ft 473 kts 200°
2026-04-23 15:52 -17.45061 35.69459 36064 ft 473 kts 200°
2026-04-23 15:53 -17.51334 35.67277 36064 ft 473 kts 200°
2026-04-23 15:53 -17.57572 35.65105 36049 ft 474 kts 200°
2026-04-23 15:54 -17.63822 35.62928 36051 ft 474 kts 200°
2026-04-23 15:54 -17.70103 35.60737 36047 ft 474 kts 200°
2026-04-23 15:55 -17.76351 35.58556 36045 ft 474 kts 200°
2026-04-23 15:55 -17.82627 35.56363 36040 ft 474 kts 200°
2026-04-23 15:56 -17.88858 35.54185 36046 ft 474 kts 200°
2026-04-23 15:56 -17.95141 35.51987 36039 ft 474 kts 200°
2026-04-23 15:57 -18.01385 35.49800 36045 ft 474 kts 200°
2026-04-23 15:57 -18.07658 35.47603 36046 ft 474 kts 201°
2026-04-23 15:58 -18.13900 35.45413 36040 ft 475 kts 201°
2026-04-23 15:58 -18.20167 35.43214 36044 ft 475 kts 201°
2026-04-23 15:59 -18.26449 35.41008 36047 ft 475 kts 201°
2026-04-23 15:59 -18.32714 35.38806 36048 ft 475 kts 201°
2026-04-23 16:00 -18.38963 35.36608 36050 ft 475 kts 201°
2026-04-23 16:00 -18.45256 35.34393 36058 ft 475 kts 201°
2026-04-23 16:01 -18.51513 35.32188 36060 ft 475 kts 201°
2026-04-23 16:01 -18.57802 35.29971 36058 ft 475 kts 201°
2026-04-23 16:02 -18.64073 35.27761 36055 ft 475 kts 201°
2026-04-23 16:02 -18.70314 35.25564 36063 ft 475 kts 201°
2026-04-23 16:03 -18.76616 35.23344 36063 ft 476 kts 201°
2026-04-23 16:03 -18.82869 35.21137 36066 ft 476 kts 201°
2026-04-23 16:04 -18.89154 35.18918 36064 ft 476 kts 201°
2026-04-23 16:04 -18.95450 35.16693 36069 ft 476 kts 201°
2026-04-23 16:05 -19.00648 35.14855 36065 ft 476 kts 201°
2026-04-23 16:05 -19.07985 35.12258 36069 ft 477 kts 201°
2026-04-23 16:06 -19.14260 35.10035 36069 ft 477 kts 201°
2026-04-23 16:06 -19.20575 35.07796 36070 ft 476 kts 201°
2026-04-23 16:07 -19.26837 35.05574 36073 ft 476 kts 202°
2026-04-23 16:07 -19.33152 35.03332 36071 ft 477 kts 202°
2026-04-23 16:08 -19.39421 35.01104 36071 ft 477 kts 202°
2026-04-23 16:08 -19.45712 34.98866 36074 ft 477 kts 202°
2026-04-23 16:09 -19.51983 34.96634 36072 ft 477 kts 202°
2026-04-23 16:09 -19.58316 34.94377 36074 ft 478 kts 202°
2026-04-23 16:10 -19.64611 34.92132 36078 ft 479 kts 202°
2026-04-23 16:10 -19.70955 34.89867 36052 ft 480 kts 202°
2026-04-23 16:11 -19.77131 34.87316 36046 ft 475 kts 211°
2026-04-23 16:11 -19.82620 34.83533 36050 ft 470 kts 223°
2026-04-23 16:12 -19.87527 34.78931 36062 ft 468 kts 225°
2026-04-23 16:12 -19.92364 34.74299 36068 ft 469 kts 225°
2026-04-23 16:13 -19.97217 34.69689 36079 ft 469 kts 225°
2026-04-23 16:13 -20.04544 34.62775 36108 ft 469 kts 225°
2026-04-23 16:14 -20.09414 34.58182 36104 ft 469 kts 225°
2026-04-23 16:14 -20.13484 34.54338 36108 ft 469 kts 225°
2026-04-23 16:15 -20.19165 34.48968 36120 ft 469 kts 225°
2026-04-23 16:15 -20.23208 34.45142 36131 ft 468 kts 226°
2026-04-23 16:16 -20.28098 34.40511 36133 ft 468 kts 226°
2026-04-23 16:16 -20.32941 34.35921 36118 ft 467 kts 226°
2026-04-23 16:17 -20.37810 34.31302 36129 ft 467 kts 226°
2026-04-23 16:17 -20.42651 34.26705 36146 ft 466 kts 226°
2026-04-23 16:18 -20.47491 34.22104 36147 ft 467 kts 226°
2026-04-23 16:18 -20.52336 34.17496 36149 ft 467 kts 226°
2026-04-23 16:19 -20.57177 34.12887 36158 ft 466 kts 226°
2026-04-23 16:19 -20.62013 34.08278 36161 ft 468 kts 226°
2026-04-23 16:20 -20.66880 34.03635 36137 ft 467 kts 226°
2026-04-23 16:20 -20.71716 33.99025 36148 ft 466 kts 225°
2026-04-23 16:21 -20.76699 33.94596 36155 ft 467 kts 224°
2026-04-23 16:21 -20.81765 33.90249 36143 ft 468 kts 224°
2026-04-23 16:22 -20.86834 33.85865 36157 ft 469 kts 224°
2026-04-23 16:22 -20.91912 33.81431 36161 ft 469 kts 224°
2026-04-23 16:23 -20.96950 33.77016 36157 ft 468 kts 224°
2026-04-23 16:23 -21.01966 33.72615 36160 ft 467 kts 224°
2026-04-23 16:24 -21.06997 33.68198 36173 ft 466 kts 225°
2026-04-23 16:24 -21.11998 33.63804 36167 ft 465 kts 225°
2026-04-23 16:25 -21.16985 33.59418 36158 ft 465 kts 225°
2026-04-23 16:25 -21.21990 33.55013 36161 ft 465 kts 225°
2026-04-23 16:26 -21.26978 33.50618 36162 ft 465 kts 225°
2026-04-23 16:26 -21.32000 33.46190 36165 ft 466 kts 225°
2026-04-23 16:27 -21.36977 33.41798 36170 ft 466 kts 225°
2026-04-23 16:27 -21.41999 33.37361 36167 ft 466 kts 225°
2026-04-23 16:28 -21.46993 33.32946 36172 ft 467 kts 225°
2026-04-23 16:28 -21.52017 33.28499 36175 ft 467 kts 225°
2026-04-23 16:29 -21.56999 33.24086 36175 ft 467 kts 225°
2026-04-23 16:29 -21.62037 33.19619 36181 ft 467 kts 225°
2026-04-23 16:30 -21.67034 33.15184 36184 ft 467 kts 225°
2026-04-23 16:30 -21.72028 33.10746 36179 ft 466 kts 225°
2026-04-23 16:31 -21.77034 33.06296 36178 ft 466 kts 225°
2026-04-23 16:31 -21.81990 33.01844 36185 ft 465 kts 226°
2026-04-23 16:32 -21.86915 32.97374 36185 ft 464 kts 226°
2026-04-23 16:32 -21.91870 32.92877 36188 ft 464 kts 226°
2026-04-23 16:33 -21.96797 32.88408 36213 ft 464 kts 226°
2026-04-23 16:33 -22.01749 32.83911 36195 ft 464 kts 226°
2026-04-23 16:34 -22.06683 32.79448 36194 ft 464 kts 226°
2026-04-23 16:34 -22.11655 32.75033 36194 ft 463 kts 226°
2026-04-23 16:35 -22.16644 32.70613 36205 ft 463 kts 226°
2026-04-23 16:35 -22.21602 32.66205 36208 ft 463 kts 226°
2026-04-23 16:36 -22.26555 32.61789 36227 ft 463 kts 226°
2026-04-23 16:36 -22.31543 32.57338 36226 ft 462 kts 226°
2026-04-23 16:37 -22.36473 32.52935 36211 ft 461 kts 226°
2026-04-23 16:37 -22.41410 32.48521 36208 ft 461 kts 226°
2026-04-23 16:38 -22.46366 32.44085 36212 ft 460 kts 226°
2026-04-23 16:38 -22.51282 32.39682 36240 ft 460 kts 226°
2026-04-23 16:39 -22.56210 32.35262 36215 ft 460 kts 226°
2026-04-23 16:39 -22.61126 32.30850 36259 ft 461 kts 226°
2026-04-23 16:40 -22.63613 32.28615 36449 ft 464 kts 226°
2026-04-23 16:40 -22.66102 32.26378 36889 ft 461 kts 227°
2026-04-23 16:40 -22.68536 32.24194 37419 ft 455 kts 226°
2026-04-23 16:40 -22.70966 32.22013 37967 ft 449 kts 227°
2026-04-23 16:41 -22.73378 32.19844 38261 ft 450 kts 227°
2026-04-23 16:41 -22.75769 32.17688 38242 ft 452 kts 227°
2026-04-23 16:41 -22.80608 32.13325 38242 ft 447 kts 227°
2026-04-23 16:42 -22.85360 32.09039 38243 ft 444 kts 227°
2026-04-23 16:42 -22.90083 32.04775 38256 ft 443 kts 227°
2026-04-23 16:43 -22.94828 32.00485 38234 ft 444 kts 227°
2026-04-23 16:43 -22.99585 31.96236 38263 ft 444 kts 226°
2026-04-23 16:44 -23.04426 31.92048 38266 ft 444 kts 226°
2026-04-23 16:44 -23.09241 31.87884 38275 ft 445 kts 226°
2026-04-23 16:45 -23.14096 31.83662 38274 ft 448 kts 226°
2026-04-23 16:45 -23.18987 31.79398 38297 ft 450 kts 226°
2026-04-23 16:46 -23.23854 31.75151 38276 ft 451 kts 226°
2026-04-23 16:46 -23.28757 31.70871 38293 ft 449 kts 226°
2026-04-23 16:47 -23.33596 31.66641 38313 ft 448 kts 227°
2026-04-23 16:47 -23.38452 31.62390 38306 ft 447 kts 227°
2026-04-23 16:48 -23.43172 31.58065 38304 ft 440 kts 233°
2026-04-23 16:48 -23.47133 31.53053 38313 ft 431 kts 240°
2026-04-23 16:49 -23.50353 31.47592 38343 ft 427 kts 245°
2026-04-23 16:49 -23.53418 31.42036 38317 ft 430 kts 245°
2026-04-23 16:50 -23.56497 31.36466 38334 ft 431 kts 245°
2026-04-23 16:50 -23.59603 31.30876 38331 ft 431 kts 245°
2026-04-23 16:51 -23.62725 31.25271 38328 ft 430 kts 245°
2026-04-23 16:51 -23.65820 31.19709 38342 ft 430 kts 245°
2026-04-23 16:52 -23.68908 31.14152 38346 ft 430 kts 245°
2026-04-23 16:52 -23.72015 31.08555 38343 ft 430 kts 245°
2026-04-23 16:53 -23.75106 31.02979 38364 ft 430 kts 245°
2026-04-23 16:53 -23.78191 30.97407 38362 ft 431 kts 245°
2026-04-23 16:54 -23.81307 30.91773 38359 ft 432 kts 245°
2026-04-23 16:54 -23.84407 30.86163 38351 ft 431 kts 245°
2026-04-23 16:55 -23.87496 30.80568 38353 ft 431 kts 245°
2026-04-23 16:55 -23.90594 30.74949 38357 ft 431 kts 245°
2026-04-23 16:56 -23.93681 30.69342 38361 ft 431 kts 245°
2026-04-23 16:56 -23.96761 30.63744 38359 ft 431 kts 245°
2026-04-23 16:57 -23.99860 30.58101 38371 ft 431 kts 245°
2026-04-23 16:57 -24.02950 30.52471 38371 ft 431 kts 245°
2026-04-23 16:58 -24.06029 30.46854 38377 ft 431 kts 245°
2026-04-23 16:58 -24.09100 30.41246 38377 ft 431 kts 245°
2026-04-23 16:59 -24.12185 30.35604 38392 ft 431 kts 245°
2026-04-23 16:59 -24.15258 30.29978 38389 ft 431 kts 245°
2026-04-23 17:00 -24.18330 30.24351 38400 ft 431 kts 245°
2026-04-23 17:00 -24.20895 30.19643 38419 ft 431 kts 245°
2026-04-23 17:01 -24.23958 30.14015 38382 ft 432 kts 245°
2026-04-23 17:01 -24.27047 30.08333 38385 ft 432 kts 246°
2026-04-23 17:02 -24.30126 30.02666 38405 ft 433 kts 245°
2026-04-23 17:02 -24.33197 29.97007 38396 ft 434 kts 246°
2026-04-23 17:03 -24.36276 29.91324 38383 ft 434 kts 246°
2026-04-23 17:03 -24.39368 29.85612 38390 ft 434 kts 246°
2026-04-23 17:04 -24.42445 29.79956 38384 ft 434 kts 245°
2026-04-23 17:04 -24.45570 29.74269 38387 ft 434 kts 245°
2026-04-23 17:05 -24.48669 29.68611 38378 ft 434 kts 245°
2026-04-23 17:05 -24.51807 29.62928 38378 ft 434 kts 245°
2026-04-23 17:06 -24.54943 29.57283 38382 ft 434 kts 245°
2026-04-23 17:06 -24.58072 29.51633 38385 ft 434 kts 245°
2026-04-23 17:07 -24.61227 29.45937 38375 ft 435 kts 245°
2026-04-23 17:07 -24.64359 29.40281 38381 ft 435 kts 245°
2026-04-23 17:08 -24.67515 29.34572 38382 ft 435 kts 246°
2026-04-23 17:08 -24.70653 29.28889 38380 ft 435 kts 246°
2026-04-23 17:09 -24.73781 29.23217 38392 ft 436 kts 246°
2026-04-23 17:09 -24.76923 29.17511 38378 ft 436 kts 246°
2026-04-23 17:10 -24.80072 29.11785 38207 ft 439 kts 246°
2026-04-23 17:10 -24.81673 29.08864 37454 ft 447 kts 246°
2026-04-23 17:10 -24.83260 29.05977 36945 ft 442 kts 246°
2026-04-23 17:11 -24.84898 29.03118 36416 ft 442 kts 242°
2026-04-23 17:11 -24.86989 29.00614 35827 ft 455 kts 230°
2026-04-23 17:11 -24.89547 28.98491 35287 ft 463 kts 221°
2026-04-23 17:11 -24.92406 28.96750 34737 ft 473 kts 212°
2026-04-23 17:12 -24.95458 28.95435 34184 ft 476 kts 210°
2026-04-23 17:12 -24.98585 28.94175 33597 ft 475 kts 209°
2026-04-23 17:12 -25.01663 28.92953 33083 ft 472 kts 209°
2026-04-23 17:12 -25.04739 28.91725 32613 ft 468 kts 209°
2026-04-23 17:13 -25.07794 28.90489 32115 ft 464 kts 209°
2026-04-23 17:13 -25.10810 28.89253 31637 ft 459 kts 209°
2026-04-23 17:13 -25.13789 28.88021 31168 ft 455 kts 209°
2026-04-23 17:13 -25.16726 28.86799 30705 ft 452 kts 208°
2026-04-23 17:14 -25.19660 28.85574 30182 ft 448 kts 208°
2026-04-23 17:14 -25.22579 28.84354 29640 ft 444 kts 208°
2026-04-23 17:14 -25.25456 28.83153 29164 ft 439 kts 208°
2026-04-23 17:14 -25.28273 28.81976 28694 ft 434 kts 208°
2026-04-23 17:15 -25.31089 28.80799 28228 ft 430 kts 207°
2026-04-23 17:15 -25.33888 28.79628 27776 ft 426 kts 207°
2026-04-23 17:15 -25.36651 28.78473 27308 ft 422 kts 207°
2026-04-23 17:15 -25.39353 28.77341 26872 ft 418 kts 207°
2026-04-23 17:16 -25.42080 28.76199 26438 ft 415 kts 206°
2026-04-23 17:16 -25.44770 28.75071 25993 ft 411 kts 206°
2026-04-23 17:16 -25.47424 28.73958 25549 ft 408 kts 206°
2026-04-23 17:16 -25.50080 28.72853 25127 ft 405 kts 204°
2026-04-23 17:17 -25.52778 28.72011 24690 ft 406 kts 198°
2026-04-23 17:17 -25.55543 28.71345 24240 ft 405 kts 196°
2026-04-23 17:17 -25.58314 28.70718 23789 ft 404 kts 195°
2026-04-23 17:17 -25.61071 28.70100 23294 ft 401 kts 195°
2026-04-23 17:18 -25.66494 28.68885 22426 ft 395 kts 195°
2026-04-23 17:18 -25.69188 28.68282 22002 ft 392 kts 195°
2026-04-23 17:18 -25.71823 28.67691 21581 ft 389 kts 195°
2026-04-23 17:19 -25.74488 28.67091 21003 ft 391 kts 195°
2026-04-23 17:19 -25.77171 28.66482 20414 ft 394 kts 195°
2026-04-23 17:19 -25.79865 28.65865 19949 ft 393 kts 195°
2026-04-23 17:19 -25.82505 28.65257 19517 ft 390 kts 195°
2026-04-23 17:20 -25.85168 28.64637 19106 ft 388 kts 195°
2026-04-23 17:20 -25.90447 28.63393 18208 ft 385 kts 195°
2026-04-23 17:21 -25.95644 28.62118 17332 ft 381 kts 194°
2026-04-23 17:21 -25.98229 28.61472 16944 ft 379 kts 194°
2026-04-23 17:21 -26.03334 28.60191 16149 ft 374 kts 194°
2026-04-23 17:22 -26.05874 28.59553 15755 ft 372 kts 194°
2026-04-23 17:22 -26.10875 28.58297 15004 ft 368 kts 194°
2026-04-23 17:23 -26.15825 28.57050 14283 ft 363 kts 194°
2026-04-23 17:23 -26.18298 28.56426 13894 ft 360 kts 194°
2026-04-23 17:23 -26.23100 28.55163 13243 ft 351 kts 194°
2026-04-23 17:24 -26.25474 28.54516 12949 ft 346 kts 194°
2026-04-23 17:24 -26.27776 28.53884 12781 ft 338 kts 194°
2026-04-23 17:24 -26.32202 28.52658 12263 ft 322 kts 194°
2026-04-23 17:25 -26.36496 28.51390 11662 ft 313 kts 204°
2026-04-23 17:25 -26.38265 28.50050 11281 ft 310 kts 229°
2026-04-23 17:26 -26.40278 28.45909 10718 ft 301 kts 249°
2026-04-23 17:26 -26.41916 28.41623 10240 ft 299 kts 249°
2026-04-23 17:27 -26.43529 28.37324 9738 ft 303 kts 249°
2026-04-23 17:27 -26.44340 28.35142 9499 ft 304 kts 249°
2026-04-23 17:27 -26.45150 28.32956 9268 ft 302 kts 249°
2026-04-23 17:27 -26.45937 28.30810 9140 ft 296 kts 249°
2026-04-23 17:28 -26.46707 28.28707 9026 ft 296 kts 249°
2026-04-23 17:28 -26.47458 28.26551 8950 ft 298 kts 255°
2026-04-23 17:28 -26.47669 28.24257 8775 ft 298 kts 280°
2026-04-23 17:28 -26.46983 28.22127 8637 ft 287 kts 307°
2026-04-23 17:29 -26.45620 28.20638 8468 ft 269 kts 331°
2026-04-23 17:29 -26.43994 28.19668 8345 ft 257 kts 338°
2026-04-23 17:29 -26.40823 28.18060 8166 ft 250 kts 345°
2026-04-23 17:30 -26.39699 28.17835 8096 ft 247 kts
2026-04-23 17:30 -26.35823 28.18777 8040 ft 245 kts 18°
2026-04-23 17:30 -26.34167 28.19293 8005 ft 245 kts 19°
2026-04-23 17:31 -26.32564 28.19802 7989 ft 237 kts 19°
2026-04-23 17:31 -26.31016 28.20288 7990 ft 224 kts 18°
2026-04-23 17:31 -26.29567 28.20736 7977 ft 207 kts 19°
2026-04-23 17:31 -26.28233 28.21151 7967 ft 194 kts 19°
2026-04-23 17:32 -26.26926 28.21558 7663 ft 195 kts 19°
2026-04-23 17:32 -26.25652 28.21955 7424 ft 184 kts 21°
2026-04-23 17:32 -26.24464 28.22326 7183 ft 170 kts 21°
2026-04-23 17:32 -26.23393 28.22659 6983 ft 153 kts 22°
2026-04-23 17:33 -26.22397 28.22969 6803 ft 145 kts 23°
2026-04-23 17:33 -26.21417 28.23252 6730 ft 148 kts 22°
2026-04-23 17:33 -26.20393 28.23587 6499 ft 156 kts 23°
2026-04-23 17:33 -26.19354 28.23912 6250 ft 156 kts 20°
2026-04-23 17:34 -26.18304 28.24236 5935 ft 155 kts 20°
2026-04-23 17:34 -26.17267 28.24561 5725 ft 156 kts 20°
2026-04-23 17:34 -26.15292 28.25182 5519 ft 125 kts 15°
2026-04-23 17:35 -26.14627 28.25386 5510 ft 72 kts 15°
2026-04-23 17:35 -26.14248 28.25479 5516 ft 12 kts
2026-04-23 17:35 -26.14140 28.25465 5516 ft 20 kts 349°
2026-04-23 17:36 -26.13999 28.25440 5515 ft 13 kts 351°
2026-04-23 17:36 -26.13945 28.25430 5515 ft 8 kts 351°
2026-04-23 17:36 -26.13883 28.25422 5514 ft 10 kts 359°
2026-04-23 17:36 -26.13802 28.25434 5513 ft 13 kts 14°
2026-04-23 17:37 -26.13705 28.25463 5511 ft 16 kts 15°
2026-04-23 17:37 -26.13584 28.25500 5507 ft 20 kts 16°
2026-04-23 17:37 -26.13314 28.25492 5522 ft 20 kts 348°
2026-04-23 17:38 -26.13178 28.25461 5529 ft 20 kts 348°
2026-04-23 17:38 -26.13049 28.25408 5532 ft 20 kts 329°
2026-04-23 17:38 -26.12943 28.25313 5531 ft 20 kts 311°
2026-04-23 17:38 -26.12869 28.25170 5531 ft 23 kts 291°
2026-04-23 17:39 -26.12824 28.25003 5531 ft 23 kts 286°
2026-04-23 17:39 -26.12782 28.24837 5531 ft 23 kts 285°
2026-04-23 17:39 -26.12740 28.24669 5531 ft 22 kts 285°
2026-04-23 17:39 -26.12697 28.24501 5536 ft 22 kts 285°
2026-04-23 17:40 -26.12658 28.24344 5546 ft 11 kts 285°
2026-04-23 17:40 -26.12640 28.24274 5544 ft 9 kts 285°
2026-04-23 17:40 -26.12635 28.24256 5543 ft 1 kts 285°
2026-04-23 17:40 -26.12634 28.24250 5543 ft 0 kts 285°
2026-04-23 17:42 -26.12633 28.24249 5544 ft 2 kts 285°
2026-04-23 17:42 -26.12620 28.24196 5546 ft 13 kts 286°
2026-04-23 17:42 -26.12595 28.24100 5545 ft 13 kts 286°
2026-04-23 17:43 -26.12571 28.24003 5548 ft 13 kts 285°
2026-04-23 17:43 -26.12550 28.23906 5550 ft 12 kts 266°
2026-04-23 17:43 -26.12608 28.23862 5552 ft 9 kts 195°
2026-04-23 17:43 -26.12669 28.23843 5553 ft 9 kts 195°
2026-04-23 17:44 -26.12732 28.23825 5553 ft 9 kts 195°
2026-04-23 17:44 -26.12793 28.23805 5555 ft 8 kts 195°
2026-04-23 17:44 -26.12829 28.23699 5554 ft 8 kts 275°
2026-04-23 17:45 -26.12823 28.23635 5551 ft 8 kts 276°
2026-04-23 17:45 -26.12890 28.23579 5555 ft 7 kts 186°
2026-04-23 17:45 -26.12916 28.23576 5554 ft 1 kts 186°
2026-04-23 17:46 -26.12920 28.23576 5554 ft 0 kts 186°